Tracking 19847 objects as of 17-Sep-2019
HD Live streaming from Space Station
objects crossing your sky now

FENGYUN 1C DEB

Track FENGYUN 1C DEB now!
10-day predictions


NORAD ID: 32316
Int'l Code: 1999-025CXH
Perigee: 755.5 km
Apogee: 822.5 km
Inclination: 99.5 °
Period: 100.5 minutes
Semi major axis: 7160 km
RCS: 0.0087 m2 (small)
Launch date: May 10, 1999
Source: People's Republic of China (PRC)
Launch site: Taiyaun Space Center, China (TSC)

Note: This is SATELLITE DEBRIS
aabbcc
Your satellite tracking list
Your tracking list is empty




NASA's NSSDC Master Catalog

Two Line Element Set (TLE):
1 32316U 99025CXH 19258.11525786  .00000259  00000-0  11229-3 0  9994
2 32316  99.5104   5.6746 0046731 100.6781  22.3499 14.32957121635454
Source of the keplerian elements: AFSPC